Preview of NWS' New Version of Forecast
This preview is not operational and should not be used for support decisions.

Regional Weather Roundup (RWR)

Issued by National Weather Service (NWS)

                            
000
ASUS43 KMKX 180511
RWRWI 

WISCONSIN REGIONAL WEATHER ROUNDUP
NATIONAL WEATHER SERVICE MILWAUKEE/SULLIVAN WI
1200 AM CDT SUN AUG 18 2019

NOTE: "FAIR" INDICATES FEW OR NO CLOUDS BELOW 12,000 FEET WITH NO
SIGNIFICANT WEATHER AND/OR OBSTRUCTIONS TO VISIBILITY.

WIZ001-002-006>008-014>016-023>028-180600-
NORTHWEST WISCONSIN
  
CITY           SKY/WX    TMP DP  RH WIND       PRES   REMARKS
SUPERIOR ARPT  FAIR      61  59  95 CALM      29.74S                  
ASHLAND        FAIR      60  58  92 S3        29.77F                  
HAYWARD        FAIR      64  59  83 SE5       29.78F                  
SIREN          FAIR      66  59  78 SE5       29.74F                  
CUMBERLAND     FAIR      63  59  88 SE5       29.77F                  
RICE LAKE      FAIR      65  49  55 SE6       29.78F                  
CHETEK         FAIR      64  62  90 SE5       29.78F                  
LADYSMITH      FAIR      65  61  88 SE5       29.81F                  
EAU CLAIRE     FAIR      69  61  75 SE7       29.76F                  
MENOMONIE      FAIR      61  59  93 E5        29.76F                  
NEW RICHMOND   FAIR      65  59  81 SE3       29.74F                  
OSCEOLA        FAIR      67  62  83 SE6       29.76F                  
$$
 
WIZ003>005-009-010-017-018-180600-
NORTH CENTRAL WISCONSIN
  
CITY           SKY/WX    TMP DP  RH WIND       PRES   REMARKS
MANITOWISH WTR FAIR      57  57 100 SE5       29.83F                  
ARBOR VITAE    FAIR      64  61  90 S5        29.84F                  
WOODRUFF       FAIR      64  61  90 S5        29.84F                  
RHINELANDER    FAIR      64  59  83 SE3       29.86F                  
EAGLE RIVER    FAIR      62  60  96 S5        29.85F                  
LAND O LAKES   FAIR      60  59  97 SE3       29.87F                  
PHILLIPS       FAIR      64  61  91 S6        29.82S                  
TOMAHAWK       FAIR      58  57  97 CALM      29.85F                  
MEDFORD        FAIR      61  59  91 CALM      29.84F                  
MERRILL        FAIR      61  60  97 CALM      29.85F                  
$$
 
WIZ029-030-035-036-043>047-180600-
CENTRAL WISCONSIN
  
CITY           SKY/WX    TMP DP  RH WIND       PRES   REMARKS
WAUSAU         FAIR      63  61  93 E3        29.84S                  
MOSINEE        FAIR      61  61 100 CALM      29.86F                  
MARSHFIELD     FAIR      65  61  87 SE3       29.83F                  
STEVENS POINT  FAIR      60  59  99 CALM      29.85F                  
WAUPACA        FAIR      64  63  96 CALM      29.85S                  
WAUTOMA        FAIR      62  61  96 CALM      29.86R                  
WISC RAPIDS    FAIR      66  62  87 SE5       29.84S                  
CAMP DOUGLAS   FAIR      65  65 100 SE3       29.83S                  
$$
 
WIZ011>013-019>022-031-037>040-048>050-180600-
NORTHEAST WISCONSIN
  
CITY           SKY/WX    TMP DP  RH WIND       PRES   REMARKS
ANTIGO         FAIR      60  59  97 CALM      29.87F                  
SHAWANO        FAIR      68  64  85 S5        29.86R                  
OCONTO         FAIR      60  60  99 CALM      29.85F                  
STURGEON BAY   FAIR      65  63  93 S6        29.87F                  
GREEN BAY      FAIR      65  63  93 CALM      29.86S                  
MANITOWOC      FAIR      68  67  96 S7        29.87F                  
APPLETON       NOT AVBL                                               
CLINTONVILLE   FAIR      63  60  90 CALM      29.85S                  
OSHKOSH        FAIR      66  64  93 S3        29.85S                  
$$
 
WIZ032>034-041-042-053>061-180600-
SOUTHWEST WISCONSIN
  
CITY           SKY/WX    TMP DP  RH WIND       PRES   REMARKS
LA CROSSE      FAIR      72  65  78 SE7       29.78S                  
SPARTA         MOCLDY    61  60  95 CALM      29.82S                  
VIROQUA        FAIR      67  67 100 SE7       29.83F                  
BOSCOBEL       FAIR      67  65  93 CALM      29.83R                  
PRAIRIE DU CHI LGT RAIN  72  67  84 SE5       29.81F                  
PLATTEVILLE    FAIR      69  69 100 S6        29.86R                  
$$

WIZ056-057-062-063-064-067-068-180600-
SOUTH CENTRAL WISCONSIN
  
CITY           SKY/WX    TMP DP  RH WIND       PRES   REMARKS
REEDSBURG      FAIR      65  65 100 CALM      29.84S                  
BARABOO/DELLS  FAIR      64  62  93 S5        29.85S                  
LONE ROCK      FAIR      66  64  93 E6        29.83S                  
MINERAL POINT    N/A     70  70 100 E3        29.86F                  
MADISON        FAIR      72  68  87 S6        29.86R                  
MIDDLETON      FAIR      71  26  18 CALM      29.87R                  
WATERTOWN      FAIR      68  68 100 CALM      29.87R                  
MONROE         FAIR      70  67  91 S8        29.87R                  
JANESVILLE     FAIR      72  72 100 S5        29.87S                  
$$
 
WIZ051-052-058>065-066-070>072-180600-
SOUTHEAST WISCONSIN
  
CITY           SKY/WX    TMP DP  RH WIND       PRES   REMARKS
MILWAUKEE      FAIR      71  67  87 S5        29.87S                  
WAUKESHA       FAIR      66  64  94 S3        29.89S                  
MILWAUKEE/TIMM FAIR      70  63  78 CALM      29.88S                  
RACINE         FAIR      71  69  93 CALM      29.89S FOG              
KENOSHA        FAIR      69  68  96 SW3       29.88S FOG              
FOND DU LAC    FAIR      70  66  87 SE5       29.86S                  
SHEBOYGAN      CLOUDY    68  67  96 CALM      29.87S FOG              
WEST BEND      FAIR      64  64 100 CALM      29.88S FOG              
JUNEAU         FAIR      67  66  97 S3        29.89R                  
$$

LSZ147-162-180600-
LAKE SUPERIOR
  
STATION/POSITION TIME  TEMP    WIND        PRES    WAVE
                       AIR SEA DIR/SP/G            HT/PER
                 (UTC) (F)     (DEG/KT/KT) (MB)    (FT/S)
W MID LAKE BUOY  0450   67 64  170/  8/ 10 1006.9F   0
DEVILS ISLAND    0400   73     170/  9/ 12 1007.5F
SAXON HARBOR     0430   67     190/  3/  5 1007.5F
$$
 
LMZ867-665-643>646-180600-
LAKE MICHIGAN
  
STATION/POSITION TIME  TEMP    WIND        PRES    WAVE
                       AIR SEA DIR/SP/G            HT/PER
                 (UTC) (F)     (DEG/KT/KT) (MB)    (FT/S)
S GREEN BAY BUOY 0430   74 71  180/  8/ 10 1011.2F
N MID LAKE BUOY  0450   70 70  200/  6/  8 1012.0R   1/ 3
NORTHPORT PIER   0440   66     150/  1/  2 1011.2S
KEWAUNEE LAKESHO 0430   66      CALM  /  1 1010.9F
SHEBOYGAN LAKESH 0500   71     160/ 10/ 11 1011.2F
PORT WASHINGTON  0440   70     170/  5/  6 1012.5R
S MID LAKE BUOY  0450   73 74  140/  6/  6 1012.3R   0
KENOSHA   LAKESH 0500   72     190/  3/  4 1011.5
$$

TC  - TEMPERATURE IN CELSIUS
VSB - VISIBILITY IN STATUTE MILES
WCI - WIND CHILL INDEX
HX  - HEAT INDEX